Weather History for Minneapolis, MN

Change the Weather History Date:

Friday, July 5, 2013

  Actual Average Record
Temperature  
Mean Temperature 81 °F 74 °F  
Max Temperature 89 °F 83 °F 100 °F (1982)
Min Temperature 72 °F 64 °F 45 °F (1972)
Degree Days  
Heating Degree Days 0 0  
Month to date heating degree days 0 0  
Since 1 June heating degree days 42 44  
Since 1 July heating degree days 0 0  
Cooling Degree Days 16 9  
Month to date cooling degree days 53 43  
Year to date cooling degree days 270 243  
Since 1 June cooling degree days 217 201  
Growing Degree Days 30 (Base 50)    
Moisture  
Dew Point 59 °F    
Average Humidity 47    
Maximum Humidity 57    
Minimum Humidity 36    
Precipitation  
Precipitation 0.00 in 0.13 in 1.62 in (1994)
Month to date precipitation 0.00 0.64  
Year to date precipitation 20.86 14.47  
Snow  
Snow 0.00 in 0.00 in 0.00 in ()
Month to date snowfall 0.0 0.0  
Since 1 June snowfall 0.0 0.0  
Since 1 July snowfall 0.0 0.0  
Snow Depth 0.00 in    
Sea Level Pressure  
Sea Level Pressure 29.85 in    
Wind  
Wind Speed 13 mph (South)    
Max Wind Speed 22 mph    
Max Gust Speed 31 mph    
Visibility 10 miles    
Events      
T = Trace of Precipitation, MM = Missing Value Source: NWS Daily Summary

Daily Weather History Graph

Daily Weather History Graph

Search for Another Location

Airport:

Trip Planner

Search our weather history database for the weather conditions in past years. The results will help you decide how hot, cold, wet, or windy it might be!

Date:

Astronomy

Jul. 05, 2013 Rise Set
Actual Time 5:33 AM CDT 9:01 PM CDT
Civil Twilight 4:56 AM CDT 9:38 PM CDT
Nautical Twilight 4:08 AM CDT 10:26 PM CDT
Astronomical Twilight 3:05 AM CDT 11:28 PM CDT
Moon 3:35 AM CDT (7/5) 6:54 PM CDT (7/5)
Length of Visible Light 16h 41m
Length of Day
15h 28m
Waning Crescent, 6% of the Moon is Illuminated
Jul 5
Waning Crescent
Jul 8
New
Jul 15
First Quarter
Jul 22
Full
Jul 29
Last Quarter

Hourly Weather History & Observations

Time (CDT) Temp. Heat Index Dew Point Humidity Pressure Visibility Wind Dir Wind Speed Gust Speed Precip Events Conditions
12:53 AM 77.0 °F - 57.0 °F 50% 29.88 in 10.0 mi South 12.7 mph - N/A   Clear
1:53 AM 75.9 °F - 57.0 °F 52% 29.89 in 10.0 mi South 10.4 mph - N/A   Clear
2:53 AM 75.9 °F - 57.9 °F 54% 29.89 in 10.0 mi South 9.2 mph - N/A   Clear
3:53 AM 75.0 °F - 57.9 °F 55% 29.89 in 10.0 mi South 8.1 mph - N/A   Clear
4:53 AM 73.9 °F - 57.9 °F 57% 29.89 in 10.0 mi South 10.4 mph - N/A   Clear
5:53 AM 73.0 °F - 57.9 °F 59% 29.89 in 10.0 mi South 10.4 mph - N/A   Partly Cloudy
6:53 AM 73.0 °F - 57.9 °F 59% 29.89 in 10.0 mi South 9.2 mph - N/A   Scattered Clouds
7:53 AM 73.9 °F - 57.9 °F 57% 29.89 in 10.0 mi South 9.2 mph - N/A   Mostly Cloudy
8:53 AM 77.0 °F - 59.0 °F 54% 29.88 in 10.0 mi South 13.8 mph 17.3 mph N/A   Scattered Clouds
9:53 AM 80.1 °F 80.6 °F 57.9 °F 47% 29.86 in 10.0 mi SSE 16.1 mph 26.5 mph N/A   Scattered Clouds
10:53 AM 82.0 °F 82.4 °F 60.1 °F 47% 29.86 in 10.0 mi South 17.3 mph - N/A   Mostly Cloudy
11:53 AM 84.9 °F 84.4 °F 59.0 °F 41% 29.85 in 10.0 mi South 11.5 mph - N/A   Mostly Cloudy
12:53 PM 87.1 °F 86.1 °F 57.9 °F 37% 29.84 in 10.0 mi SSW 17.3 mph 24.2 mph N/A   Mostly Cloudy
1:53 PM 86.0 °F 85.4 °F 59.0 °F 40% 29.83 in 10.0 mi SSW 11.5 mph 20.7 mph N/A   Mostly Cloudy
2:53 PM 86.0 °F 85.7 °F 60.1 °F 41% 29.83 in 10.0 mi South 13.8 mph 19.6 mph N/A   Overcast
3:53 PM 86.0 °F 86.1 °F 61.0 °F 43% 29.83 in 10.0 mi South 11.5 mph - N/A   Mostly Cloudy
4:53 PM 88.0 °F 88.4 °F 62.1 °F 42% 29.81 in 10.0 mi South 13.8 mph - N/A   Scattered Clouds
5:53 PM 88.0 °F 86.7 °F 57.0 °F 35% 29.80 in 10.0 mi South 18.4 mph 27.6 mph N/A   Scattered Clouds
6:53 PM 88.0 °F 87.9 °F 61.0 °F 40% 29.80 in 10.0 mi South 18.4 mph - N/A   Partly Cloudy
7:53 PM 86.0 °F 85.7 °F 60.1 °F 41% 29.81 in 10.0 mi South 15.0 mph 24.2 mph N/A   Partly Cloudy
8:53 PM 84.0 °F 84.4 °F 61.0 °F 46% 29.81 in 10.0 mi SSE 13.8 mph - N/A   Partly Cloudy
9:53 PM 82.0 °F 83.0 °F 62.1 °F 51% 29.83 in 10.0 mi South 11.5 mph - N/A   Partly Cloudy
10:53 PM 81.0 °F 81.9 °F 62.1 °F 52% 29.83 in 10.0 mi South 11.5 mph - N/A   Clear
11:53 PM 80.1 °F 81.2 °F 62.1 °F 54% 29.85 in 10.0 mi South 11.5 mph - N/A   Clear